{"data":{"norad_id":62221,"intl_designator":"2024-231D","name":"STARLINK-11468 [DTC]","alt_names":[],"object_type":"PAYLOAD","status":"ACTIVE","operator":null,"country":"US","launch_date":"2024-12-05","launch_site_code":"AFWTR","launch_vehicle":null,"mission":null,"orbit_class":"UNKNOWN","rcs_meters":null,"size_class":null,"mass_kg":null,"dimensions":null,"purposes":["comms"],"wikipedia_slug":null,"has_3d_model":false,"image_url":null,"decayed_at":null,"tle_current":{"epoch":"2026-09-21T21:27:27.583200Z","epoch_age_seconds":57804,"freshness":"FRESH","line1":"1 62221U 24231D   26264.89406925  .00226842  00000+0  18141-2 0  9998","line2":"2 62221  53.1566 214.3399 0002333 127.3009 232.8222 15.69874423104224","mean_motion":15.69874423,"eccentricity":0.0002333,"inclination_deg":53.1566,"raan_deg":214.3399,"arg_perigee_deg":127.3009,"mean_anomaly_deg":232.8222,"bstar":0.0018141,"rev_number":10422,"period_min":91.727082045721,"perigee_km":357.68444194756,"apogee_km":360.82810965005,"semimajor_km":6737.3932757988,"source":"CELESTRAK","updated_at":"2026-09-22T09:00:49.544682Z"}}}